Regional Weather Roundup
Issued by NWS

Home | Current Version | Previous Version | Graphics & Text | Print | Product List | Glossary On
Versions: 1 2 3 4 5 6 7 8 9 10 11 12 13 14 15 16 17 18 19 20 21 22 23 24 25 26 27 28 29 30 31 32 33 34 35 36 37 38 39 40 41 42 43 44 45 46 47 48 49 50
000
ASUS43 KMKX 071911
RWRWI

WISCONSIN REGIONAL WEATHER ROUNDUP
NATIONAL WEATHER SERVICE MILWAUKEE/SULLIVAN WI
100 PM CST WED DEC 07 2016

NOTE: "FAIR" INDICATES FEW OR NO CLOUDS BELOW 12,000 FEET WITH NO
SIGNIFICANT WEATHER AND/OR OBSTRUCTIONS TO VISIBILITY.

WIZ001-002-006>008-014>016-023>028-072000-
NORTHWEST WISCONSIN

CITY           SKY/WX    TMP DP  RH WIND       PRES   REMARKS
SUPERIOR ARPT  CLOUDY    21  11  66 W15G24    29.86S WCI   8
ASHLAND        FLURRIES  20  12  71 SW17G31   29.83R WCI   5
HAYWARD        FLURRIES  18   9  68 W15G28    29.86S WCI   4
SIREN          PTSUNNY   19  10  69 W18G24    29.93S WCI   4
CUMBERLAND     PTSUNNY   21  12  68 W15G24    29.91S WCI   8
RICE LAKE      PTSUNNY   20  12  69 W22G28    29.94F WCI   4
CHETEK         CLOUDY    20  11  69 W12G18    29.94S WCI   8
LADYSMITH      CLOUDY    21  13  70 W18G25    29.90S WCI   6
EAU CLAIRE     FLURRIES  20  12  71 W20G29    29.97S WCI   4
MENOMONIE      CLOUDY    22  14  71 W16       29.99S WCI   8
NEW RICHMOND   FLURRIES  20  10  64 W21G28    29.98S WCI   4
OSCEOLA        PTSUNNY   20  10  64 W17G26    30.02S WCI   6
$$

WIZ003>005-009-010-017-018-072000-
NORTH CENTRAL WISCONSIN

CITY           SKY/WX    TMP DP  RH WIND       PRES   REMARKS
MANITOWISH WTR LGT SNOW  17  11  78 W12G25    29.77R WCI   4
ARBOR VITAE    FLURRIES  19  12  74 W18G26    29.78S WCI   4
WOODRUFF       FLURRIES  19  12  74 W18G26    29.78S WCI   4
RHINELANDER    LGT SNOW  19  13  77 W16G25    29.80S WCI   4
EAGLE RIVER    LGT SNOW  18  10  73 W21G30    29.76S WCI   1
LAND O LAKES   FLURRIES  19  11  72 W10G21    29.76S WCI   7
PHILLIPS       FLURRIES  17  11  75 W16G25    29.82S WCI   2
TOMAHAWK       LGT SNOW  18  12  77 SW6G17    29.84S WCI  10
MEDFORD        LGT SNOW  17  11  77 W15G24    29.87S WCI   2
MERRILL        LGT SNOW  19  13  76 W18G25    29.88R WCI   4
$$

WIZ029-030-035-036-043>047-072000-
CENTRAL WISCONSIN

CITY           SKY/WX    TMP DP  RH WIND       PRES   REMARKS
WAUSAU         LGT SNOW  19  12  74 W20G29    29.89S WCI   3
MOSINEE        FLURRIES  19  16  86 W17G26    29.91R WCI   4
MARSHFIELD     CLOUDY    20  12  71 W20       29.91F WCI   4
STEVENS POINT  CLOUDY    21  12  67 W16G23    29.93S WCI   7
WAUPACA        PTSUNNY   27  16  63 SW18G25   29.94F WCI  13
WAUTOMA        CLOUDY    22  14  71 W18G25    29.97F WCI   7
WISC RAPIDS    CLOUDY    23  14  68 W10G22    29.96S WCI  12
CAMP DOUGLAS   PTSUNNY   21  12  68 W15       30.00F WCI   8
$$

WIZ011>013-019>022-031-037>040-048>050-072000-
NORTHEAST WISCONSIN

CITY           SKY/WX    TMP DP  RH WIND       PRES   REMARKS
ANTIGO         FLURRIES  18  12  76 W18G30    29.84R WCI   2
SHAWANO        CLOUDY    27  15  59 W13G28    29.90S WCI  16
OCONTO         CLOUDY    25  14  61 W18G28    29.89R WCI  12
STURGEON BAY   CLOUDY    25  16  68 W18G25    29.87S WCI  11
GREEN BAY      MOSUNNY   28  17  63 W21G30    29.91F WCI  15
MANITOWOC      CLOUDY    26  17  68 W16G26    29.93F WCI  14
APPLETON       PTSUNNY   25  14  63 W18G25    29.92S WCI  11
CLINTONVILLE   PTSUNNY   27  14  59 W17G26    29.91F WCI  14
OSHKOSH        MOSUNNY   22  13  68 W16G25    29.95S WCI   8
$$

WIZ032>034-041-042-053>061-072000-
SOUTHWEST WISCONSIN

CITY           SKY/WX    TMP DP  RH WIND       PRES   REMARKS
LA CROSSE      CLOUDY    23  12  62 W14       30.07S WCI  11
SPARTA         CLOUDY    22  14  71 W13G20    30.03F WCI  10
VIROQUA        CLOUDY    18  11  75 W20       30.03F WCI   1
BOSCOBEL       MOSUNNY   22  12  65 SW10G18   30.09F WCI  11
PRAIRIE DU CHI CLOUDY    21  10  63 W16       30.11F WCI   7
PLATTEVILLE    CLOUDY    20  14  77 W18       30.07F WCI   5
$$

WIZ056-057-062-063-064-067-068-072000-
SOUTH CENTRAL WISCONSIN

CITY           SKY/WX    TMP DP  RH WIND       PRES   REMARKS
REEDSBURG      MOSUNNY   20  13  71 W15G21    30.02F WCI   7
BARABOO/DELLS  MOSUNNY   21  12  69 W15G22    30.01F WCI   7
LONE ROCK      CLOUDY    21  12  68 W13       30.07F WCI   9
MINERAL POINT  PTSUNNY   21  16  79 W12G17    30.03F WCI   9
MADISON        PTSUNNY   22  13  68 W7G18     30.03S WCI  13
MIDDLETON      NOT AVBL
WATERTOWN      CLOUDY    23  16  75 W13       30.01F WCI  11
MONROE         CLOUDY    21  14  73 W18       30.04F WCI   6
JANESVILLE     MOSUNNY   25  16  68 W13G18    30.06S WCI  13
$$

WIZ051-052-058>065-066-070>072-072000-
SOUTHEAST WISCONSIN

CITY           SKY/WX    TMP DP  RH WIND       PRES   REMARKS
MILWAUKEE      CLOUDY    28  15  58 W15G28    30.00S WCI  16
WAUKESHA       SUNNY     23  16  74 W15       30.01S WCI  10
MILWAUKEE/TIMM SUNNY     27  14  59 SW17      30.01S WCI  14
RACINE         MOSUNNY   28  16  60 W15G25    30.03S WCI  16
BURLINGTON     MOSUNNY   25  17  73 W13G20    30.04S WCI  13
KENOSHA        MOSUNNY   27  17  66 W18       30.03S WCI  14
FOND DU LAC    CLOUDY    23  13  65 W12G22    29.98S WCI  12
SHEBOYGAN      SUNNY     24  15  68 W22       29.95R WCI   9
WEST BEND      NOT AVBL
JUNEAU         CLOUDY    21  14  75 SW17      30.02R WCI   6
$$

LSZ147-162-072000-
LAKE SUPERIOR

STATION/POSITION TIME  TEMP    WIND        PRES    WAVE
                       AIR SEA DIR/SP/G            HT/PER
                 (UTC) (F)     (DEG/KT/KT) (MB)    (FT/S)
DEVILS ISLAND    1900   25     250/ 32/ 40 1008.3R
PORT WING        1830   21     230/ 16/ 25 1010.2R
SAXON HARBOR     1840   21     220/ 15/ 26 1009.8R
$$

LMZ867-665-643>646-072000-
LAKE MICHIGAN

STATION/POSITION TIME  TEMP    WIND        PRES    WAVE
                       AIR SEA DIR/SP/G            HT/PER
                 (UTC) (F)     (DEG/KT/KT) (MB)    (FT/S)
CHAMBERS ISLAND  1840   25     220/ 12/ 21 1010.2S
NORTHPORT PIER   1846   27     230/  8/ 22 1010.5S
SISTER BAY       1823   28     280/ 22/ 26   N/A
KEWAUNEE LAKESHO 1848   26     270/ 14/ 22 1011.9F
SHEBOYGAN LAKESH 1900   24     260/ 19/ 24 1015.0R
PORT WASHINGTON  1900   26     260/ 12     1016.3
MILWAUKEE LAKESH 1850   26     250/ 14/ 16   N/A
KENOSHA   LAKESH 1900   27     250/ 18/ 22 1017.3
$$

TC  - TEMPERATURE IN CELSIUS
VSB - VISIBILITY IN STATUTE MILES
WCI - WIND CHILL INDEX
HX  - HEAT INDEX





USA.gov is the U.S. government's official web portal to all federal, state and local government web resources and services.